Chicago, IL

11:51 PM CST on February 25, 2017 (GMT -0600)
George Street | | Change Station

Elev 656 ft 41.94 °N, 87.88 °W | Updated 27 seconds ago

Mostly Cloudy
Mostly Cloudy
25.3 °F
Feels Like 25 °F
N
2.5
Wind Variable Wind from WSW
Gusts 6.2 mph

Today
High -- | Low -- °F
--% Chance of Precip.
Yesterday
High -- | Low -- °F
Precip. -- in
Pressure 30.06 in
Visibility 10.0 miles
Clouds Scattered Clouds 15000 ft
Mostly Cloudy 25000 ft
Windchill 25 °F
Dew Point 17 °F
Humidity 70%
Rainfall 0.00 in
Snow Depth Not available.
6:32 AM 5:37 PM
Waning Crescent, 0% visible
METAR KORD 260451Z 29008KT 10SM SCT150 BKN250 M03/M10 A3003 RMK AO2 SLP179 T10331100
Pressure 30.06 in
Visibility 10.0 miles
Clouds Scattered Clouds 15000 ft
Mostly Cloudy 25000 ft
Windchill 25 °F
Dew Point 17 °F
Humidity 70%
Rainfall 0.00 in
Snow Depth Not available.
6:32 AM 5:37 PM
Waning Crescent, 0% visible
METAR KORD 260451Z 29008KT 10SM SCT150 BKN250 M03/M10 A3003 RMK AO2 SLP179 T10331100

Get Your Daily Forecast Email!

Thanks for signing up!

Be on the lookout for a verification email in your inbox.

You'll start receiving the daily forecast at 8 AM.

×

10-Day Weather Forecast

Almanac

Astronomy

Feb. 25, 2017 Rise Set
Actual Time
Civil Twilight
Nautical Twilight
Astronomical Twilight
Moon
Length of Visible Light
Length of Day
Tomorrow will be .
, % of the Moon is Illuminated

Today's Extremes

State Highs State Lows

Community

WunderPhotos

Upload Photos

1,962,540 photos uploaded!

WunderBlog® & News

Nearby

Air Quality

  Air Quality AQ Index Pollutant
Not available.

Snow Depth

Station Depth Elevation

Earthquake Activity

City Distance Mag. Time & Date
Minimum magnitude displayed is 2.5.

Coastal Water Temperatures

Place Temperature

Stations

Nearby Weather Stations

Station Location Temp. Windchill Dew Point Humidity Wind Precip. Elev Updated Type
                   

Watches & Warnings

There are currently no watches in effect.